contact:dominique.lefevre@mio.osupytheas.fr, maurice.libes@osupytheas.fr, didier.mallarino@osupytheas.fr
Project:EMSO http://www.emso-fr.org/EMSO-France
Depth: 2436.0 m
Title:EMSO Ligure Ouest : Data MII capteur MICROCAT
DateTime_Computer,Latitude,Longitude,Temperature,Conductivity,Pressure,DateTime_Instrument
DateTime_Computer,Latitude,Longitude,degC,S m-1,dbar,DateTime_Instrument
2019-11-10T00:00:01Z,42.805,6.029,13.2956,4.59958,2469.83,2019-11-10T02:00:29Z
2019-11-10T00:03:04Z,42.805,6.029,13.2959,4.59958,2469.867,2019-11-10T02:03:32Z
2019-11-10T00:06:08Z,42.805,6.029,13.2958,4.59957,2469.853,2019-11-10T02:06:35Z
2019-11-10T00:09:11Z,42.805,6.029,13.2957,4.59958,2469.853,2019-11-10T02:09:38Z
2019-11-10T00:12:14Z,42.805,6.029,13.2955,4.59957,2469.844,2019-11-10T02:12:41Z
2019-11-10T00:15:17Z,42.805,6.029,13.2958,4.59956,2469.83,2019-11-10T02:15:45Z
2019-11-10T00:18:20Z,42.805,6.029,13.2956,4.59956,2469.844,2019-11-10T02:18:48Z
2019-11-10T00:21:24Z,42.805,6.029,13.2959,4.59957,2469.867,2019-11-10T02:21:51Z
2019-11-10T00:24:27Z,42.805,6.029,13.2955,4.59958,2469.83,2019-11-10T02:24:54Z
2019-11-10T00:27:30Z,42.805,6.029,13.2954,4.59956,2469.83,2019-11-10T02:27:58Z
2019-11-10T00:30:33Z,42.805,6.029,13.2957,4.59958,2469.853,2019-11-10T02:31:01Z
2019-11-10T00:33:37Z,42.805,6.029,13.2962,4.59956,2469.844,2019-11-10T02:34:04Z
2019-11-10T00:36:40Z,42.805,6.029,13.2953,4.59956,2469.853,2019-11-10T02:37:07Z
2019-11-10T00:39:43Z,42.805,6.029,13.2958,4.59956,2469.83,2019-11-10T02:40:11Z
2019-11-10T00:42:46Z,42.805,6.029,13.2958,4.59956,2469.83,2019-11-10T02:43:14Z
2019-11-10T00:45:50Z,42.805,6.029,13.2958,4.59957,2469.83,2019-11-10T02:46:17Z
2019-11-10T00:48:53Z,42.805,6.029,13.2955,4.59956,2469.83,2019-11-10T02:49:20Z
2019-11-10T00:51:56Z,42.805,6.029,13.2961,4.59956,2469.867,2019-11-10T02:52:24Z
2019-11-10T00:54:59Z,42.805,6.029,13.2958,4.59955,2469.844,2019-11-10T02:55:27Z
2019-11-10T00:58:03Z,42.805,6.029,13.2957,4.59956,2469.83,2019-11-10T02:58:30Z
2019-11-10T01:01:06Z,42.805,6.029,13.2960,4.59957,2469.844,2019-11-10T03:01:33Z
2019-11-10T01:04:09Z,42.805,6.029,13.2959,4.59956,2469.89,2019-11-10T03:04:37Z
2019-11-10T01:07:13Z,42.805,6.029,13.2959,4.59956,2469.821,2019-11-10T03:07:40Z
2019-11-10T01:10:16Z,42.805,6.029,13.2961,4.59956,2469.867,2019-11-10T03:10:43Z
2019-11-10T01:13:19Z,42.805,6.029,13.2954,4.59957,2469.853,2019-11-10T03:13:46Z
2019-11-10T01:16:22Z,42.805,6.029,13.2958,4.59956,2469.844,2019-11-10T03:16:50Z
2019-11-10T01:19:26Z,42.805,6.029,13.2958,4.59956,2469.844,2019-11-10T03:19:53Z
2019-11-10T01:22:29Z,42.805,6.029,13.2959,4.59956,2469.867,2019-11-10T03:22:56Z
2019-11-10T01:25:32Z,42.805,6.029,13.2958,4.59956,2469.844,2019-11-10T03:25:59Z
2019-11-10T01:28:35Z,42.805,6.029,13.2961,4.59956,2469.89,2019-11-10T03:29:03Z
2019-11-10T01:31:39Z,42.805,6.029,13.2957,4.59956,2469.83,2019-11-10T03:32:06Z
2019-11-10T01:34:42Z,42.805,6.029,13.2957,4.59958,2469.89,2019-11-10T03:35:09Z
2019-11-10T01:37:45Z,42.805,6.029,13.2963,4.59956,2469.853,2019-11-10T03:38:12Z
2019-11-10T01:40:48Z,42.805,6.029,13.2957,4.59958,2469.89,2019-11-10T03:41:16Z
2019-11-10T01:43:52Z,42.805,6.029,13.2957,4.59956,2469.876,2019-11-10T03:44:19Z
2019-11-10T01:46:55Z,42.805,6.029,13.2959,4.59956,2469.853,2019-11-10T03:47:22Z
2019-11-10T01:49:58Z,42.805,6.029,13.2958,4.59956,2469.867,2019-11-10T03:50:25Z
2019-11-10T01:53:01Z,42.805,6.029,13.2958,4.59956,2469.853,2019-11-10T03:53:28Z
2019-11-10T01:56:04Z,42.805,6.029,13.2957,4.59957,2469.853,2019-11-10T03:56:32Z
2019-11-10T01:59:08Z,42.805,6.029,13.2961,4.59957,2469.89,2019-11-10T03:59:35Z
2019-11-10T02:02:11Z,42.805,6.029,13.2954,4.59957,2469.876,2019-11-10T04:02:38Z
2019-11-10T02:05:14Z,42.805,6.029,13.2956,4.59957,2469.876,2019-11-10T04:05:41Z
2019-11-10T02:08:17Z,42.805,6.029,13.2963,4.59956,2469.89,2019-11-10T04:08:45Z
2019-11-10T02:11:20Z,42.805,6.029,13.2958,4.59958,2469.867,2019-11-10T04:11:48Z
2019-11-10T02:14:24Z,42.805,6.029,13.2958,4.59957,2469.914,2019-11-10T04:14:51Z
2019-11-10T02:17:27Z,42.805,6.029,13.2954,4.59957,2469.914,2019-11-10T04:17:54Z
2019-11-10T02:20:30Z,42.805,6.029,13.2961,4.59956,2469.876,2019-11-10T04:20:57Z
2019-11-10T02:23:33Z,42.805,6.029,13.2957,4.59957,2469.876,2019-11-10T04:24:01Z
2019-11-10T02:26:37Z,42.805,6.029,13.2955,4.59956,2469.876,2019-11-10T04:27:04Z
2019-11-10T02:29:40Z,42.805,6.029,13.2960,4.59956,2469.89,2019-11-10T04:30:07Z
2019-11-10T02:32:43Z,42.805,6.029,13.2956,4.59957,2469.9,2019-11-10T04:33:10Z
2019-11-10T02:35:46Z,42.805,6.029,13.2958,4.59956,2469.9,2019-11-10T04:36:14Z
2019-11-10T02:38:49Z,42.805,6.029,13.2955,4.59956,2469.914,2019-11-10T04:39:17Z
2019-11-10T02:41:53Z,42.805,6.029,13.2961,4.59956,2469.914,2019-11-10T04:42:20Z
2019-11-10T02:44:56Z,42.805,6.029,13.2958,4.59957,2469.937,2019-11-10T04:45:23Z
2019-11-10T02:47:59Z,42.805,6.029,13.2957,4.59956,2469.9,2019-11-10T04:48:27Z
2019-11-10T02:51:03Z,42.805,6.029,13.2957,4.59956,2469.937,2019-11-10T04:51:30Z
2019-11-10T02:54:06Z,42.805,6.029,13.2957,4.59956,2469.937,2019-11-10T04:54:33Z
2019-11-10T02:57:09Z,42.805,6.029,13.2957,4.59956,2469.9,2019-11-10T04:57:36Z
2019-11-10T03:00:12Z,42.805,6.029,13.2953,4.59956,2469.923,2019-11-10T05:00:40Z
2019-11-10T03:03:15Z,42.805,6.029,13.2958,4.59956,2469.914,2019-11-10T05:03:43Z
2019-11-10T03:06:19Z,42.805,6.029,13.2957,4.59956,2469.914,2019-11-10T05:06:46Z
2019-11-10T03:09:22Z,42.805,6.029,13.2957,4.59958,2469.9,2019-11-10T05:09:49Z
2019-11-10T03:12:25Z,42.805,6.029,13.2957,4.59956,2469.947,2019-11-10T05:12:52Z
2019-11-10T03:15:28Z,42.805,6.029,13.2957,4.59956,2469.923,2019-11-10T05:15:56Z
2019-11-10T03:18:32Z,42.805,6.029,13.2957,4.59956,2469.96,2019-11-10T05:18:59Z
2019-11-10T03:21:35Z,42.805,6.029,13.2958,4.59956,2469.96,2019-11-10T05:22:02Z
2019-11-10T03:24:38Z,42.805,6.029,13.2958,4.59955,2469.96,2019-11-10T05:25:05Z
2019-11-10T03:27:41Z,42.805,6.029,13.2958,4.59956,2469.923,2019-11-10T05:28:09Z
2019-11-10T03:30:44Z,42.805,6.029,13.2958,4.59957,2469.923,2019-11-10T05:31:12Z
2019-11-10T03:33:48Z,42.805,6.029,13.2959,4.59956,2469.96,2019-11-10T05:34:15Z
2019-11-10T03:36:51Z,42.805,6.029,13.2958,4.59956,2469.923,2019-11-10T05:37:18Z
2019-11-10T03:39:54Z,42.805,6.029,13.2957,4.59956,2469.947,2019-11-10T05:40:22Z
2019-11-10T03:42:57Z,42.805,6.029,13.2958,4.59955,2469.96,2019-11-10T05:43:25Z
2019-11-10T03:46:01Z,42.805,6.029,13.2958,4.59956,2469.984,2019-11-10T05:46:28Z
2019-11-10T03:49:04Z,42.805,6.029,13.2958,4.59956,2469.923,2019-11-10T05:49:31Z
2019-11-10T03:52:07Z,42.805,6.029,13.2956,4.59956,2469.923,2019-11-10T05:52:34Z
2019-11-10T03:55:10Z,42.805,6.029,13.2956,4.59956,2469.993,2019-11-10T05:55:38Z
2019-11-10T03:58:13Z,42.805,6.029,13.2958,4.59956,2469.97,2019-11-10T05:58:41Z
2019-11-10T04:01:17Z,42.805,6.029,13.2958,4.59955,2469.993,2019-11-10T06:01:44Z
2019-11-10T04:04:20Z,42.805,6.029,13.2958,4.59956,2469.947,2019-11-10T06:04:47Z
2019-11-10T04:07:23Z,42.805,6.029,13.2958,4.59955,2469.947,2019-11-10T06:07:50Z
2019-11-10T04:10:26Z,42.805,6.029,13.2956,4.59956,2469.96,2019-11-10T06:10:54Z
2019-11-10T04:13:29Z,42.805,6.029,13.2957,4.59956,2469.984,2019-11-10T06:13:57Z
2019-11-10T04:16:33Z,42.805,6.029,13.2958,4.59956,2469.97,2019-11-10T06:17:00Z
2019-11-10T04:19:36Z,42.805,6.029,13.2959,4.59956,2469.97,2019-11-10T06:20:03Z
2019-11-10T04:22:39Z,42.805,6.029,13.2958,4.59956,2469.96,2019-11-10T06:23:07Z
2019-11-10T04:25:42Z,42.805,6.029,13.2958,4.59956,2470.007,2019-11-10T06:26:10Z
2019-11-10T04:28:46Z,42.805,6.029,13.2958,4.59956,2469.97,2019-11-10T06:29:13Z
2019-11-10T04:31:49Z,42.805,6.029,13.2957,4.59956,2470.007,2019-11-10T06:32:16Z
2019-11-10T04:34:52Z,42.805,6.029,13.2961,4.59956,2469.993,2019-11-10T06:35:19Z
2019-11-10T04:37:55Z,42.805,6.029,13.2959,4.59956,2470.053,2019-11-10T06:38:23Z
2019-11-10T04:40:58Z,42.805,6.029,13.2961,4.59956,2470.053,2019-11-10T06:41:26Z
2019-11-10T04:44:02Z,42.805,6.029,13.2953,4.59956,2469.984,2019-11-10T06:44:29Z
2019-11-10T04:47:05Z,42.805,6.029,13.2958,4.59956,2469.979,2019-11-10T06:47:32Z
2019-11-10T04:50:08Z,42.805,6.029,13.2959,4.59956,2469.97,2019-11-10T06:50:36Z
2019-11-10T04:53:11Z,42.805,6.029,13.2962,4.59956,2470.053,2019-11-10T06:53:39Z
2019-11-10T04:56:15Z,42.805,6.029,13.2957,4.59956,2469.993,2019-11-10T06:56:42Z
2019-11-10T04:59:18Z,42.805,6.029,13.2959,4.59956,2469.993,2019-11-10T06:59:45Z
2019-11-10T05:02:21Z,42.805,6.029,13.2959,4.59956,2470.007,2019-11-10T07:02:48Z
2019-11-10T05:05:24Z,42.805,6.029,13.2958,4.59956,2470.017,2019-11-10T07:05:52Z
2019-11-10T05:08:27Z,42.805,6.029,13.2956,4.59956,2470.017,2019-11-10T07:08:55Z
2019-11-10T05:11:31Z,42.805,6.029,13.2957,4.59955,2470.017,2019-11-10T07:11:58Z
2019-11-10T05:14:34Z,42.805,6.029,13.2957,4.59955,2470.007,2019-11-10T07:15:01Z
2019-11-10T05:17:37Z,42.805,6.029,13.2957,4.59956,2469.993,2019-11-10T07:18:05Z
2019-11-10T05:20:40Z,42.805,6.029,13.2956,4.59956,2470.007,2019-11-10T07:21:08Z
2019-11-10T05:23:44Z,42.805,6.029,13.2960,4.59956,2470.007,2019-11-10T07:24:11Z
2019-11-10T05:26:47Z,42.805,6.029,13.2957,4.59956,2470.03,2019-11-10T07:27:14Z
2019-11-10T05:29:50Z,42.805,6.029,13.2955,4.59957,2470.007,2019-11-10T07:30:18Z
2019-11-10T05:32:53Z,42.805,6.029,13.2961,4.59955,2469.993,2019-11-10T07:33:21Z
2019-11-10T05:35:57Z,42.805,6.029,13.2956,4.59956,2469.993,2019-11-10T07:36:24Z
2019-11-10T05:39:00Z,42.805,6.029,13.2961,4.59956,2470.017,2019-11-10T07:39:27Z
2019-11-10T05:42:03Z,42.805,6.029,13.2957,4.59955,2469.97,2019-11-10T07:42:30Z
2019-11-10T05:45:06Z,42.805,6.029,13.2957,4.59955,2470.03,2019-11-10T07:45:34Z
2019-11-10T05:48:10Z,42.805,6.029,13.2961,4.59956,2469.979,2019-11-10T07:48:37Z
2019-11-10T05:51:13Z,42.805,6.029,13.2961,4.59955,2470.017,2019-11-10T07:51:40Z
2019-11-10T05:54:16Z,42.805,6.029,13.2956,4.59956,2470.03,2019-11-10T07:54:43Z
2019-11-10T05:57:19Z,42.805,6.029,13.2958,4.59956,2470.007,2019-11-10T07:57:47Z
2019-11-10T06:00:23Z,42.805,6.029,13.2958,4.59956,2469.993,2019-11-10T08:00:50Z
2019-11-10T06:03:26Z,42.805,6.029,13.2956,4.59956,2469.97,2019-11-10T08:03:53Z
2019-11-10T06:06:29Z,42.805,6.029,13.2957,4.59955,2470.03,2019-11-10T08:06:56Z
2019-11-10T06:09:32Z,42.805,6.029,13.2958,4.59956,2469.984,2019-11-10T08:10:00Z
2019-11-10T06:12:36Z,42.805,6.029,13.2958,4.59956,2469.96,2019-11-10T08:13:03Z
2019-11-10T06:15:39Z,42.805,6.029,13.2957,4.59956,2469.993,2019-11-10T08:16:06Z
2019-11-10T06:18:42Z,42.805,6.029,13.2954,4.59956,2470.03,2019-11-10T08:19:09Z
2019-11-10T06:21:45Z,42.805,6.029,13.2957,4.59956,2469.993,2019-11-10T08:22:13Z
2019-11-10T06:24:49Z,42.805,6.029,13.2957,4.59956,2470.017,2019-11-10T08:25:16Z
2019-11-10T06:27:52Z,42.805,6.029,13.2957,4.59956,2470.007,2019-11-10T08:28:19Z
2019-11-10T06:30:55Z,42.805,6.029,13.2960,4.59956,2469.993,2019-11-10T08:31:22Z
2019-11-10T06:33:58Z,42.805,6.029,13.2962,4.59956,2469.993,2019-11-10T08:34:26Z
2019-11-10T06:37:01Z,42.805,6.029,13.2957,4.59956,2470.03,2019-11-10T08:37:29Z
2019-11-10T06:40:05Z,42.805,6.029,13.2964,4.59956,2469.993,2019-11-10T08:40:32Z
2019-11-10T06:43:08Z,42.805,6.029,13.2962,4.59956,2470.007,2019-11-10T08:43:35Z
2019-11-10T06:46:11Z,42.805,6.029,13.2957,4.59956,2470.017,2019-11-10T08:46:39Z
2019-11-10T06:49:14Z,42.805,6.029,13.2958,4.59956,2469.993,2019-11-10T08:49:42Z
2019-11-10T06:52:18Z,42.805,6.029,13.2960,4.59956,2469.993,2019-11-10T08:52:45Z
2019-11-10T06:55:21Z,42.805,6.029,13.2958,4.59956,2469.97,2019-11-10T08:55:48Z
2019-11-10T06:58:24Z,42.805,6.029,13.2958,4.59956,2469.993,2019-11-10T08:58:51Z
2019-11-10T07:01:27Z,42.805,6.029,13.2961,4.59957,2469.97,2019-11-10T09:01:55Z
2019-11-10T07:04:30Z,42.805,6.029,13.2959,4.59957,2470.007,2019-11-10T09:04:58Z
2019-11-10T07:07:34Z,42.805,6.029,13.2958,4.59957,2469.993,2019-11-10T09:08:01Z
2019-11-10T07:10:37Z,42.805,6.029,13.2958,4.59956,2470.007,2019-11-10T09:11:04Z
2019-11-10T07:13:40Z,42.805,6.029,13.2957,4.59956,2469.97,2019-11-10T09:14:07Z
2019-11-10T07:16:43Z,42.805,6.029,13.2960,4.59956,2470.007,2019-11-10T09:17:11Z
2019-11-10T07:19:46Z,42.805,6.029,13.2959,4.59956,2470.017,2019-11-10T09:20:14Z
2019-11-10T07:22:50Z,42.805,6.029,13.2959,4.59956,2469.97,2019-11-10T09:23:17Z
2019-11-10T07:25:53Z,42.805,6.029,13.2961,4.59956,2469.993,2019-11-10T09:26:20Z
2019-11-10T07:28:56Z,42.805,6.029,13.2962,4.59956,2469.984,2019-11-10T09:29:23Z
2019-11-10T07:31:59Z,42.805,6.029,13.2960,4.59956,2470.007,2019-11-10T09:32:27Z
2019-11-10T07:35:02Z,42.805,6.029,13.2955,4.59955,2469.984,2019-11-10T09:35:30Z
2019-11-10T07:38:06Z,42.805,6.029,13.2959,4.59956,2470.03,2019-11-10T09:38:33Z
2019-11-10T07:41:09Z,42.805,6.029,13.2957,4.59956,2470.03,2019-11-10T09:41:36Z
2019-11-10T07:44:12Z,42.805,6.029,13.2955,4.59956,2470.017,2019-11-10T09:44:39Z
2019-11-10T07:47:15Z,42.805,6.029,13.2956,4.59956,2470.017,2019-11-10T09:47:43Z
2019-11-10T07:50:18Z,42.805,6.029,13.2956,4.59956,2469.993,2019-11-10T09:50:46Z
2019-11-10T07:53:22Z,42.805,6.029,13.2954,4.59957,2470.017,2019-11-10T09:53:49Z
2019-11-10T07:56:25Z,42.805,6.029,13.2959,4.59956,2470.017,2019-11-10T09:56:52Z
2019-11-10T07:59:28Z,42.805,6.029,13.2958,4.59957,2470.03,2019-11-10T09:59:55Z
2019-11-10T08:02:31Z,42.805,6.029,13.2957,4.59956,2469.97,2019-11-10T10:02:59Z
2019-11-10T08:05:34Z,42.805,6.029,13.2956,4.59956,2469.984,2019-11-10T10:06:02Z
2019-11-10T08:08:38Z,42.805,6.029,13.2957,4.59956,2469.97,2019-11-10T10:09:05Z
2019-11-10T08:11:41Z,42.805,6.029,13.2957,4.59958,2470.007,2019-11-10T10:12:08Z
2019-11-10T08:14:44Z,42.805,6.029,13.2957,4.59956,2469.97,2019-11-10T10:15:11Z
2019-11-10T08:17:47Z,42.805,6.029,13.2959,4.59956,2470.007,2019-11-10T10:18:15Z
2019-11-10T08:20:51Z,42.805,6.029,13.2961,4.59956,2469.97,2019-11-10T10:21:18Z
2019-11-10T08:23:54Z,42.805,6.029,13.2956,4.59956,2469.984,2019-11-10T10:24:21Z
2019-11-10T08:26:57Z,42.805,6.029,13.2964,4.59956,2469.984,2019-11-10T10:27:24Z
2019-11-10T08:30:00Z,42.805,6.029,13.2957,4.59956,2469.97,2019-11-10T10:30:28Z
2019-11-10T08:33:03Z,42.805,6.029,13.2957,4.59957,2469.984,2019-11-10T10:33:31Z
2019-11-10T08:36:07Z,42.805,6.029,13.2957,4.59958,2469.984,2019-11-10T10:36:34Z
2019-11-10T08:39:10Z,42.805,6.029,13.2957,4.59956,2469.97,2019-11-10T10:39:37Z
2019-11-10T08:42:13Z,42.805,6.029,13.2957,4.59957,2469.923,2019-11-10T10:42:40Z
2019-11-10T08:45:16Z,42.805,6.029,13.2958,4.59956,2469.993,2019-11-10T10:45:44Z
2019-11-10T08:48:19Z,42.805,6.029,13.2959,4.59958,2469.947,2019-11-10T10:48:47Z
2019-11-10T08:51:23Z,42.805,6.029,13.2958,4.59956,2469.97,2019-11-10T10:51:50Z
2019-11-10T08:54:26Z,42.805,6.029,13.2959,4.59956,2469.97,2019-11-10T10:54:53Z
2019-11-10T08:57:29Z,42.805,6.029,13.2958,4.59957,2469.937,2019-11-10T10:57:57Z
2019-11-10T09:00:32Z,42.805,6.029,13.2957,4.59956,2469.97,2019-11-10T11:01:00Z
2019-11-10T09:03:36Z,42.805,6.029,13.2957,4.59956,2469.96,2019-11-10T11:04:03Z
2019-11-10T09:06:39Z,42.805,6.029,13.2958,4.59956,2469.993,2019-11-10T11:07:06Z
2019-11-10T09:09:42Z,42.805,6.029,13.2957,4.59960,2469.96,2019-11-10T11:10:09Z
2019-11-10T09:12:45Z,42.805,6.029,13.2962,4.59956,2470.007,2019-11-10T11:13:13Z
2019-11-10T09:15:48Z,42.805,6.029,13.2957,4.59956,2469.984,2019-11-10T11:16:16Z
2019-11-10T09:18:52Z,42.805,6.029,13.2960,4.59957,2469.984,2019-11-10T11:19:19Z
2019-11-10T09:21:55Z,42.805,6.029,13.2960,4.59956,2470.017,2019-11-10T11:22:22Z
2019-11-10T09:24:58Z,42.805,6.029,13.2960,4.59956,2469.947,2019-11-10T11:25:25Z
2019-11-10T09:28:01Z,42.805,6.029,13.2957,4.59956,2470.03,2019-11-10T11:28:29Z
2019-11-10T09:31:04Z,42.805,6.029,13.2957,4.59957,2469.96,2019-11-10T11:31:32Z
2019-11-10T09:34:08Z,42.805,6.029,13.2958,4.59957,2469.993,2019-11-10T11:34:35Z
2019-11-10T09:37:11Z,42.805,6.029,13.2960,4.59958,2469.96,2019-11-10T11:37:38Z
2019-11-10T09:40:14Z,42.805,6.029,13.2955,4.59957,2469.993,2019-11-10T11:40:42Z
2019-11-10T09:43:17Z,42.805,6.029,13.2955,4.59958,2469.984,2019-11-10T11:43:45Z
2019-11-10T09:46:21Z,42.805,6.029,13.2961,4.59958,2469.97,2019-11-10T11:46:48Z
2019-11-10T09:49:24Z,42.805,6.029,13.2959,4.59956,2469.984,2019-11-10T11:49:51Z
2019-11-10T09:52:27Z,42.805,6.029,13.2957,4.59957,2469.923,2019-11-10T11:52:54Z
2019-11-10T09:55:30Z,42.805,6.029,13.2958,4.59956,2469.984,2019-11-10T11:55:58Z
2019-11-10T09:58:33Z,42.805,6.029,13.2964,4.59956,2469.993,2019-11-10T11:59:01Z
2019-11-10T10:01:37Z,42.805,6.029,13.2963,4.59956,2469.96,2019-11-10T12:02:04Z
2019-11-10T10:04:40Z,42.805,6.029,13.2958,4.59956,2469.947,2019-11-10T12:05:07Z
2019-11-10T10:07:43Z,42.805,6.029,13.2958,4.59956,2469.956,2019-11-10T12:08:10Z
2019-11-10T10:10:46Z,42.805,6.029,13.2961,4.59957,2469.923,2019-11-10T12:11:14Z
2019-11-10T10:13:50Z,42.805,6.029,13.2962,4.59957,2469.937,2019-11-10T12:14:17Z
2019-11-10T10:16:53Z,42.805,6.029,13.2956,4.59956,2469.947,2019-11-10T12:17:20Z
2019-11-10T10:19:56Z,42.805,6.029,13.2959,4.59956,2469.937,2019-11-10T12:20:23Z
2019-11-10T10:22:59Z,42.805,6.029,13.2961,4.59958,2469.97,2019-11-10T12:23:27Z
2019-11-10T10:26:02Z,42.805,6.029,13.2960,4.59957,2469.914,2019-11-10T12:26:30Z
2019-11-10T10:29:06Z,42.805,6.029,13.2964,4.59957,2469.947,2019-11-10T12:29:33Z
2019-11-10T10:32:09Z,42.805,6.029,13.2960,4.59961,2469.923,2019-11-10T12:32:36Z
2019-11-10T10:35:12Z,42.805,6.029,13.2959,4.59956,2469.914,2019-11-10T12:35:39Z
2019-11-10T10:38:15Z,42.805,6.029,13.2961,4.59956,2469.96,2019-11-10T12:38:43Z
2019-11-10T10:41:18Z,42.805,6.029,13.2958,4.59957,2469.9,2019-11-10T12:41:46Z
2019-11-10T10:44:22Z,42.805,6.029,13.2958,4.59957,2469.923,2019-11-10T12:44:49Z
2019-11-10T10:47:25Z,42.805,6.029,13.2957,4.59956,2469.923,2019-11-10T12:47:52Z
2019-11-10T10:50:28Z,42.805,6.029,13.2962,4.59957,2469.9,2019-11-10T12:50:55Z
2019-11-10T10:53:31Z,42.805,6.029,13.2958,4.59957,2469.923,2019-11-10T12:53:58Z
2019-11-10T10:56:34Z,42.805,6.029,13.2961,4.59957,2469.923,2019-11-10T12:57:02Z
2019-11-10T10:59:38Z,42.805,6.029,13.2955,4.59958,2469.937,2019-11-10T13:00:05Z
2019-11-10T11:02:41Z,42.805,6.029,13.2963,4.59957,2469.937,2019-11-10T13:03:08Z
2019-11-10T11:05:44Z,42.805,6.029,13.2961,4.59957,2469.914,2019-11-10T13:06:11Z
2019-11-10T11:08:47Z,42.805,6.029,13.2961,4.59958,2469.947,2019-11-10T13:09:14Z
2019-11-10T11:11:50Z,42.805,6.029,13.2960,4.59957,2469.937,2019-11-10T13:12:18Z
2019-11-10T11:14:54Z,42.805,6.029,13.2964,4.59958,2469.947,2019-11-10T13:15:21Z
2019-11-10T11:17:57Z,42.805,6.029,13.2963,4.59957,2469.923,2019-11-10T13:18:24Z
2019-11-10T11:21:00Z,42.805,6.029,13.2961,4.59958,2469.9,2019-11-10T13:21:27Z
2019-11-10T11:24:03Z,42.805,6.029,13.2959,4.59958,2469.923,2019-11-10T13:24:31Z
2019-11-10T11:27:06Z,42.805,6.029,13.2957,4.59958,2469.9,2019-11-10T13:27:34Z
2019-11-10T11:30:10Z,42.805,6.029,13.2961,4.59958,2469.923,2019-11-10T13:30:37Z
2019-11-10T11:33:13Z,42.805,6.029,13.2961,4.59957,2469.9,2019-11-10T13:33:40Z
2019-11-10T11:36:16Z,42.805,6.029,13.2958,4.59958,2469.9,2019-11-10T13:36:43Z
2019-11-10T11:39:19Z,42.805,6.029,13.2964,4.59958,2469.9,2019-11-10T13:39:47Z
2019-11-10T11:42:22Z,42.805,6.029,13.2964,4.59961,2469.9,2019-11-10T13:42:50Z
2019-11-10T11:45:26Z,42.805,6.029,13.2961,4.59958,2469.9,2019-11-10T13:45:53Z
2019-11-10T11:48:29Z,42.805,6.029,13.2961,4.59958,2469.937,2019-11-10T13:48:57Z
2019-11-10T11:51:33Z,42.805,6.029,13.2958,4.59963,2469.876,2019-11-10T13:52:00Z
2019-11-10T11:54:36Z,42.805,6.029,13.2958,4.59959,2469.9,2019-11-10T13:55:03Z
2019-11-10T11:57:39Z,42.805,6.029,13.2959,4.59958,2469.9,2019-11-10T13:58:06Z
2019-11-10T12:00:42Z,42.805,6.029,13.2960,4.59959,2469.9,2019-11-10T14:01:10Z
2019-11-10T12:03:46Z,42.805,6.029,13.2962,4.59960,2469.914,2019-11-10T14:04:13Z
2019-11-10T12:06:49Z,42.805,6.029,13.2963,4.59958,2469.876,2019-11-10T14:07:16Z
2019-11-10T12:09:52Z,42.805,6.029,13.2962,4.59959,2469.9,2019-11-10T14:10:19Z
2019-11-10T12:12:55Z,42.805,6.029,13.2966,4.59959,2469.937,2019-11-10T14:13:23Z
2019-11-10T12:15:58Z,42.805,6.029,13.2961,4.59959,2469.937,2019-11-10T14:16:26Z
2019-11-10T12:19:02Z,42.805,6.029,13.2962,4.59960,2469.914,2019-11-10T14:19:29Z
2019-11-10T12:22:05Z,42.805,6.029,13.2959,4.59961,2469.9,2019-11-10T14:22:32Z
2019-11-10T12:25:08Z,42.805,6.029,13.2963,4.59964,2469.914,2019-11-10T14:25:35Z
2019-11-10T12:28:11Z,42.805,6.029,13.2962,4.59958,2469.923,2019-11-10T14:28:39Z
2019-11-10T12:31:14Z,42.805,6.029,13.2959,4.59958,2469.89,2019-11-10T14:31:42Z
2019-11-10T12:34:18Z,42.805,6.029,13.2963,4.59962,2469.89,2019-11-10T14:34:45Z
2019-11-10T12:37:21Z,42.805,6.029,13.2958,4.59960,2469.876,2019-11-10T14:37:48Z
2019-11-10T12:40:24Z,42.805,6.029,13.2963,4.59967,2469.89,2019-11-10T14:40:52Z
2019-11-10T12:43:27Z,42.805,6.029,13.2959,4.59960,2469.914,2019-11-10T14:43:55Z
2019-11-10T12:46:31Z,42.805,6.029,13.2958,4.59959,2469.9,2019-11-10T14:46:58Z
2019-11-10T12:49:34Z,42.805,6.029,13.2961,4.59960,2469.923,2019-11-10T14:50:01Z
2019-11-10T12:52:37Z,42.805,6.029,13.2971,4.59961,2469.937,2019-11-10T14:53:04Z
2019-11-10T12:55:40Z,42.805,6.029,13.2961,4.59961,2469.937,2019-11-10T14:56:08Z
2019-11-10T12:58:44Z,42.805,6.029,13.2961,4.59960,2469.9,2019-11-10T14:59:11Z
2019-11-10T13:01:47Z,42.805,6.029,13.2959,4.59960,2469.9,2019-11-10T15:02:14Z
2019-11-10T13:04:50Z,42.805,6.029,13.2962,4.59960,2469.937,2019-11-10T15:05:17Z
2019-11-10T13:07:53Z,42.805,6.029,13.2960,4.59961,2469.923,2019-11-10T15:08:20Z
2019-11-10T13:10:56Z,42.805,6.029,13.2963,4.59962,2469.9,2019-11-10T15:11:24Z
2019-11-10T13:13:59Z,42.805,6.029,13.2961,4.59963,2469.914,2019-11-10T15:14:27Z
2019-11-10T13:17:03Z,42.805,6.029,13.2964,4.59966,2469.937,2019-11-10T15:17:30Z
2019-11-10T13:20:06Z,42.805,6.029,13.2959,4.59962,2469.9,2019-11-10T15:20:33Z
2019-11-10T13:23:09Z,42.805,6.029,13.2958,4.59961,2469.923,2019-11-10T15:23:37Z
2019-11-10T13:26:12Z,42.805,6.029,13.2961,4.59960,2469.96,2019-11-10T15:26:40Z
2019-11-10T13:29:16Z,42.805,6.029,13.2963,4.59965,2469.96,2019-11-10T15:29:43Z
2019-11-10T13:32:19Z,42.805,6.029,13.2963,4.59961,2469.96,2019-11-10T15:32:46Z
2019-11-10T13:35:22Z,42.805,6.029,13.2963,4.59962,2469.937,2019-11-10T15:35:49Z
2019-11-10T13:38:25Z,42.805,6.029,13.2961,4.59963,2469.9,2019-11-10T15:38:53Z
2019-11-10T13:41:29Z,42.805,6.029,13.2965,4.59962,2469.9,2019-11-10T15:41:56Z
2019-11-10T13:44:32Z,42.805,6.029,13.2961,4.59961,2469.937,2019-11-10T15:44:59Z
2019-11-10T13:47:35Z,42.805,6.029,13.2957,4.59961,2469.923,2019-11-10T15:48:03Z
2019-11-10T13:50:38Z,42.805,6.029,13.2961,4.59962,2469.96,2019-11-10T15:51:06Z
2019-11-10T13:53:42Z,42.805,6.029,13.2964,4.59964,2469.937,2019-11-10T15:54:09Z
2019-11-10T13:56:45Z,42.805,6.029,13.2961,4.59962,2469.97,2019-11-10T15:57:12Z
2019-11-10T13:59:48Z,42.805,6.029,13.2964,4.59964,2469.9,2019-11-10T16:00:15Z
2019-11-10T14:02:51Z,42.805,6.029,13.2961,4.59973,2469.937,2019-11-10T16:03:19Z
2019-11-10T14:05:54Z,42.805,6.029,13.2964,4.59961,2469.947,2019-11-10T16:06:22Z
2019-11-10T14:08:58Z,42.805,6.029,13.2964,4.59962,2469.923,2019-11-10T16:09:25Z
2019-11-10T14:12:01Z,42.805,6.029,13.2965,4.59965,2469.96,2019-11-10T16:12:28Z
2019-11-10T14:15:04Z,42.805,6.029,13.2962,4.59964,2469.947,2019-11-10T16:15:31Z
2019-11-10T14:18:07Z,42.805,6.029,13.2962,4.59971,2469.96,2019-11-10T16:18:35Z
2019-11-10T14:21:11Z,42.805,6.029,13.2967,4.59968,2469.96,2019-11-10T16:21:38Z
2019-11-10T14:24:14Z,42.805,6.029,13.2964,4.59966,2469.947,2019-11-10T16:24:41Z
2019-11-10T14:27:17Z,42.805,6.029,13.2961,4.59966,2469.947,2019-11-10T16:27:44Z
2019-11-10T14:30:20Z,42.805,6.029,13.2962,4.59965,2469.96,2019-11-10T16:30:48Z
2019-11-10T14:33:24Z,42.805,6.029,13.2960,4.59965,2469.984,2019-11-10T16:33:51Z
2019-11-10T14:36:27Z,42.805,6.029,13.2958,4.59965,2469.97,2019-11-10T16:36:54Z
2019-11-10T14:39:30Z,42.805,6.029,13.2965,4.59966,2469.97,2019-11-10T16:39:57Z
2019-11-10T14:42:33Z,42.805,6.029,13.2964,4.59968,2469.97,2019-11-10T16:43:01Z
2019-11-10T14:45:36Z,42.805,6.029,13.2957,4.59967,2470.007,2019-11-10T16:46:04Z
2019-11-10T14:48:40Z,42.805,6.029,13.2964,4.59963,2469.984,2019-11-10T16:49:07Z
2019-11-10T14:51:43Z,42.805,6.029,13.2963,4.59964,2469.97,2019-11-10T16:52:10Z
2019-11-10T14:54:46Z,42.805,6.029,13.2964,4.59967,2469.97,2019-11-10T16:55:14Z
2019-11-10T14:57:49Z,42.805,6.029,13.2963,4.59964,2469.97,2019-11-10T16:58:17Z
2019-11-10T15:00:53Z,42.805,6.029,13.2961,4.59966,2469.993,2019-11-10T17:01:20Z